Location: Dammartin
(48.9032°N, 1.6195°E)
Time: 08:48:41
(UTC+00:00)

SO-50 - Pass Details

Date: 09 December 2023
Orbit: 607 x 661 km, 64.6° (Epoch: 24 February)

Event Time Altitude Azimuth Distance (km) Brightness Sun altitude
Exits shadow 06:21:06 - 331° (NNW) 2,128 ? -11.5°
Reaches altitude 10° 06:21:40 10° 338° (NNW) 2,044 ? -11.4°
Maximum altitude 06:23:11 11° 357° (N) 1,945 ? -11.1°
Drops below altitude 10° 06:24:42 10° 16° (NNE) 2,032 ? -10.9°
Sets 06:28:41 0° 51° (NE) 2,924 ? -10.3°
